Home   Weather   Glennallen   Past weeks
Flag for USA

Past Weather in Glennallen, Alaska, USA — Yesterday and Last 2 Weeks

Now
20 °F

Passing clouds.


Feels Like: 20 °F
Forecast: 25 / 15 °F
Wind: No wind

Location: Gulkana Airport

Current Time: Oct 19, 2019 at 11:08:22 pm

Latest Report: Oct 19, 2019 at 9:53 pm


Visibility: 10 mi

Pressure: 29.75 "Hg

Humidity: 85%

Dew Point: 16 °F

Location of GlennallenLocation

Past Weather in Glennallen — Graph

°F

Glennallen Temperature Yesterday

Maximum temperature yesterday: 32 °F (at 3:53 pm)
Minimum temperature yesterday: 5 °F (at 4:53 am)
Average temperature yesterday: 16 °F

High & Low Weather Summary for the Past Weeks

 TemperatureHumidityPressure
High45 °F (Oct 9, 1:53 pm)97% (Oct 5, 1:53 pm)30.41 "Hg (Oct 5, 1:53 pm)
Low5 °F (Oct 18, 4:53 am)38% (Oct 12, 3:53 pm)29.21 "Hg (Oct 17, 5:53 pm)
Average27 °F78%29.78 "Hg
* Reported Oct 4 8:53 pm — Oct 19 8:53 pm, Glennallen. Weather by CustomWeather, © 2019

Note: Actual official high and low records may vary slightly from our data, if they occured in-between our weather recording intervals... More about our weather records

Advertising

Glennallen Weather History for the Previous 24 Hours

Scroll right to see more
 ConditionsComfort  
Time TempWeatherWind HumidityBarometerVisibility
8:53 pm
Sat, Oct 19
21 °FOvercast.No wind85%29.75 "Hg10 mi
7:53 pm24 °FOvercast.3 mph81%29.73 "Hg10 mi
6:53 pm26 °FPassing clouds.No wind77%29.72 "Hg10 mi
5:53 pm31 °FPartly sunny.3 mph69%29.69 "Hg10 mi
4:53 pm34 °FPassing clouds.No wind61%29.69 "Hg10 mi
3:53 pm34 °FOvercast.No wind61%29.68 "Hg10 mi
2:53 pm32 °FOvercast.No wind64%29.69 "Hg10 mi
1:53 pm30 °FOvercast.No wind69%29.69 "Hg10 mi
12:53 pm25 °FMore clouds than sun.No wind78%29.70 "Hg10 mi
11:53 am25 °FOvercast.No wind81%29.70 "Hg10 mi
10:53 am20 °FPartly sunny.No wind85%29.69 "Hg10 mi
9:53 am16 °FBroken clouds.No wind84%29.68 "Hg10 mi
8:53 am9 °FPartly sunny.3 mph88%29.68 "Hg10 mi
7:53 am10 °FClear.3 mph84%29.67 "Hg10 mi
6:53 am8 °FClear.3 mph87%29.65 "Hg10 mi
5:53 am10 °FClear.No wind84%29.63 "Hg10 mi
4:53 am10 °FClear.No wind88%29.62 "Hg10 mi
3:53 am10 °FClear.No wind84%29.61 "Hg10 mi
2:53 am8 °FClear.No wind87%29.60 "Hg10 mi
1:53 am9 °FClear.No wind84%29.58 "Hg10 mi
12:53 am10 °FPassing clouds.No wind84%29.57 "Hg10 mi
11:53 pm
Fri, Oct 18
11 °FPassing clouds.No wind88%29.56 "Hg10 mi
Weather by CustomWeather, © 2019

See weather overview